Location: Pompeys Pillar
(45.9913°N, 107.9528°W)
Time: 20:17:42
(UTC+00:00)

Tiangong - Visible Passes

Search period start: 28 May 2023 00:00
Search period end: 07 June 2023 00:00
Orbit: 387 x 392 km, 41.5° (Epoch: 28 May)

Date Brightness Start Highest point End Pass type
(mag) Time Alt. Az. Time Alt. Az. Time Alt. Az.
03 Jun 0.1 09:51:21 13° S 09:52:04 14° SSE 09:53:48 10° ESE visible
04 Jun -0.8 10:27:30 12° SW 10:29:57 26° SSE 10:32:41 10° ESE visible
05 Jun -0.5 09:31:19 20° SSE 09:31:25 20° SSE 09:33:51 10° ESE visible
06 Jun -1.2 10:07:18 17° SW 10:09:13 32° S 10:12:07 10° ESE visible
